Wind_Speed
22 20 18 15 14 15 15 14 14 15 16 18 18 18 18 17 17 18 19 19 18 17 18 20 19 21 24 28 31 28 20 13 32 41 33 28 32 36 28 21 22 26 31
27 25 24 22 19 17 17 16 16 16 17 18 19 19 18 18 18 18 19 20 21 21 18 19 20 19 20 26 28 31 28 24 19 33 36 32 28 32 34 32 29 25 26
32 31 30 28 24 21 19 19 18 17 17 18 19 19 20 20 20 18 19 20 21 21 22 20 19 21 22 21 24 29 32 31 25 17 33 36 31 31 33 32 29 28 25
37 36 34 32 28 25 22 21 21 19 18 18 18 19 20 20 21 21 21 21 21 22 23 23 20 21 24 24 24 24 29 33 33 28 24 32 34 35 37 32 31 32 30
40 39 37 34 31 29 26 24 23 21 19 18 18 18 19 20 21 22 23 23 23 23 24 25 24 19 21 25 25 24 25 29 34 35 31 26 31 36 39 37 33 31 32
41 40 38 35 34 33 30 28 26 23 20 19 19 19 19 20 21 22 23 25 26 26 27 26 26 23 21 20 24 24 23 27 29 37 40 32 26 37 38 43 37 35 34
40 39 39 38 38 36 33 30 28 25 23 21 19 20 20 19 20 21 22 25 26 27 26 27 28 25 22 23 22 24 23 21 25 28 41 47 36 32 37 41 41 38 39
41 40 39 40 39 36 35 32 30 27 24 22 22 22 22 20 20 21 22 25 27 27 27 26 27 26 23 21 23 25 25 24 23 26 32 44 52 36 29 45 44 38 37
40 40 40 40 39 38 35 32 30 29 26 25 24 23 23 21 20 22 24 26 28 29 28 27 26 25 23 22 24 26 28 29 26 29 27 28 42 46 34 38 44 39 35
39 40 40 39 37 37 33 32 32 30 28 26 25 25 24 24 20 20 22 26 30 31 31 30 28 23 22 22 24 27 30 29 31 35 36 35 38 42 38 37 39 41 42
35 33 33 35 36 34 33 34 31 30 28 27 27 26 27 25 24 22 22 24 28 30 31 31 31 32 30 23 23 27 31 31 37 40 40 41 34 40 45 30 35 43 44
30 30 33 35 34 33 32 31 30 29 28 27 27 28 27 26 25 25 24 25 25 27 30 34 37 32 27 28 30 30 29 30 32 34 33 37 40 37 39 45 33 40 45
27 29 29 29 29 30 30 28 27 27 28 27 28 30 29 26 28 27 27 27 28 28 32 32 30 31 31 30 29 29 29 31 33 35 35 35 38 34 36 44 49 42 46
22 22 24 24 25 26 26 26 27 26 27 27 29 30 31 31 30 30 30 29 27 28 32 35 33 31 31 34 36 36 33 33 33 34 34 36 35 32 30 38 41 41 44
19 20 21 22 23 23 24 23 25 26 26 29 31 30 31 33 31 31 29 26 29 29 32 36 39 40 38 37 37 32 35 34 36 34 33 34 32 29 32 32 41 39 41
19 20 22 23 23 24 26 27 27 29 29 28 27 29 32 33 29 28 31 31 31 32 36 39 40 37 36 35 38 37 35 35 32 28 28 30 30 31 30 35 37 39 39
15 17 19 21 22 24 26 28 32 30 30 31 32 30 29 31 31 31 32 33 33 35 38 40 39 37 36 36 41 42 36 35 36 38 35 34 30 33 30 33 38 39 39
16 17 19 21 23 25 26 29 30 33 34 35 33 32 32 29 30 31 31 33 37 38 40 43 44 44 40 39 40 38 36 36 37 37 31 31 32 33 36 28 39 42 40
18 19 21 24 25 25 27 28 29 31 32 35 35 33 32 31 30 30 30 35 37 40 42 43 43 44 43 39 35 38 43 42 37 35 35 33 32 31 35 28 39 44 39
20 21 22 24 24 24 24 26 27 29 31 32 34 34 32 30 33 35 35 37 38 40 40 41 40 40 35 38 41 43 43 40 37 39 38 37 35 32 34 33 32 47 41
17 17 18 19 21 21 22 24 26 28 31 33 34 32 30 30 35 35 36 37 39 43 46 46 44 43 43 43 42 42 41 40 40 39 38 37 34 32 35 34 28 44 45
18 18 18 20 22 24 26 28 29 30 31 33 35 36 31 34 41 45 48 49 49 49 47 46 46 46 46 44 43 42 41 41 40 39 37 36 34 32 32 33 25 44 49
21 23 24 25 25 25 29 31 33 32 34 38 41 45 46 49 52 52 51 49 47 46 45 44 45 45 45 43 42 41 41 41 39 37 36 35 34 34 33 32 26 41 48
22 20 22 24 28 31 30 32 34 36 39 44 49 51 51 51 50 49 49 48 48 47 46 46 45 45 44 42 42 41 41 40 37 37 36 36 34 34 33 32 21 40 48
21 27 30 29 33 35 37 39 43 49 53 54 51 50 50 50 50 49 48 48 49 49 48 46 45 44 43 42 42 40 39 38 36 36 35 33 36 36 34 33 28 26 48
26 30 31 33 38 43 47 50 51 50 49 50 51 51 51 51 52 52 53 53 51 49 47 45 43 41 40 40 40 38 37 37 37 36 35 36 37 35 34 33 31 26 47
Wind_Direction
249 250 254 261 273 281 283 291 300 308 316 322 326 328 329 331 328 325 323 320 314 309 302 296 294 277 274 275 278 278 269 280 270 268 281 289 271 269 275 275 268 257 246
249 251 253 256 262 272 279 282 288 296 307 315 320 322 324 326 328 326 323 321 319 316 310 301 297 294 282 269 270 273 272 282 293 270 267 275 285 271 265 267 269 264 255
246 249 251 252 254 262 270 275 279 286 297 307 313 316 318 320 322 323 321 318 316 315 314 308 300 298 294 285 272 267 264 268 286 277 266 264 266 285 274 265 261 260 258
246 247 249 251 252 255 260 266 269 276 287 297 305 310 313 314 316 316 315 315 314 313 313 312 309 299 297 296 292 279 271 263 269 284 279 266 260 264 277 263 263 261 258
245 245 247 248 248 251 256 261 262 267 278 289 297 303 306 308 310 310 312 311 311 310 310 310 311 304 295 293 296 294 284 275 260 269 287 295 271 260 267 269 260 264 259
244 246 246 246 246 249 252 254 255 259 269 278 287 295 300 303 306 306 307 306 308 308 309 310 310 309 301 290 288 285 287 280 274 264 270 278 290 277 261 269 262 259 263
246 245 244 243 243 244 247 250 251 254 261 270 280 287 292 297 299 300 302 301 301 303 306 308 309 311 308 302 291 286 289 291 273 274 271 265 279 284 275 269 266 257 254
243 242 241 240 240 242 245 247 247 250 258 266 272 278 284 292 295 296 297 296 298 299 302 304 305 307 308 308 307 302 294 292 298 279 274 268 261 277 279 277 276 268 253
239 240 239 238 238 238 242 244 244 247 253 261 270 276 282 287 289 292 294 296 296 298 299 300 303 302 301 302 297 293 290 281 278 279 272 274 264 255 269 287 263 267 252
239 238 236 235 235 238 240 240 240 246 254 263 269 275 279 282 285 288 291 293 294 296 297 298 300 298 299 301 296 295 292 292 284 280 277 269 262 258 261 277 269 264 258
242 238 232 232 233 235 236 237 240 245 252 259 266 272 277 282 287 288 288 288 290 293 296 299 294 296 300 297 293 290 285 284 282 281 278 281 277 259 254 268 279 262 260
236 232 226 225 228 230 233 236 242 249 255 261 267 271 275 281 283 285 285 283 286 288 289 289 293 298 298 297 293 290 291 291 289 288 283 281 279 276 255 255 274 276 264
227 224 223 225 229 231 234 237 244 252 259 264 269 276 281 282 283 282 282 282 285 282 285 292 293 291 288 290 291 290 290 286 286 286 286 281 283 281 266 255 263 270 267
220 220 223 227 232 237 239 242 247 252 260 267 271 276 281 281 280 282 284 286 286 285 291 296 298 292 287 281 285 289 283 285 288 286 286 284 283 281 277 254 259 263 260
220 222 225 229 236 245 251 254 259 262 264 268 270 274 277 279 281 284 284 292 294 292 294 290 288 290 292 292 295 291 290 289 289 289 290 283 281 277 273 266 257 257 258
231 232 235 239 241 247 254 258 262 268 268 268 269 273 281 285 287 283 279 276 274 277 280 282 285 286 286 286 288 289 287 289 289 292 292 290 281 274 279 271 263 253 260
236 241 246 253 258 262 266 270 273 264 268 269 268 268 267 270 273 273 273 273 274 276 273 276 279 280 280 279 280 286 283 278 280 280 277 273 276 282 270 267 262 255 252
257 260 264 266 269 270 271 273 275 278 280 274 268 271 271 273 274 275 273 274 272 270 269 270 273 277 278 279 280 281 279 280 284 286 279 276 273 271 272 271 253 249 245
270 271 272 272 273 275 275 275 277 278 280 282 283 277 274 277 276 272 268 266 269 269 271 273 276 279 281 282 276 272 275 281 283 280 280 279 277 271 272 273 251 255 246
278 279 278 277 276 276 276 278 279 279 281 282 284 286 290 285 277 276 276 277 276 275 277 278 280 280 273 272 275 276 278 279 276 277 279 279 278 276 275 263 260 248 243
276 278 279 277 279 283 282 280 283 285 284 285 286 287 285 282 285 284 283 279 278 280 281 281 280 278 277 278 277 275 276 274 274 275 277 278 277 273 271 262 267 245 248
278 277 273 272 276 278 279 279 279 281 281 284 285 286 281 276 274 275 277 279 282 281 279 278 276 275 275 275 274 273 273 272 272 273 275 276 275 275 274 267 270 240 242
284 283 283 283 282 286 288 284 283 283 284 285 286 286 287 286 285 285 284 283 281 279 278 276 273 272 272 273 271 270 269 268 269 272 273 273 272 272 270 266 268 234 235
283 283 283 284 285 291 290 285 281 281 284 285 286 286 284 284 283 284 284 283 282 281 279 277 275 273 272 271 269 267 266 266 266 267 267 269 269 268 268 261 266 234 234
294 290 288 289 290 288 284 278 277 281 286 288 288 287 288 287 286 285 284 283 281 279 277 274 272 270 269 267 266 265 264 264 261 261 262 263 263 266 265 262 252 243 229
291 291 287 285 285 286 285 285 286 287 287 288 289 289 288 287 287 286 284 283 280 277 275 273 271 269 267 265 264 263 262 259 256 255 254 258 263 265 264 260 246 247 227
Height
1535 1537 1538 1538 1538 1538 1537 1536 1535 1534 1533 1532 1530 1529 1527 1526 1525 1523 1521 1519 1518 1519 1517 1513 1514 1517 1516 1514 1519 1519 1514 1518 1519 1515 1515 1516 1515 1519 1521 1522 1523 1524 1526
1529 1530 1531 1533 1534 1534 1533 1533 1533 1532 1530 1529 1527 1526 1524 1523 1521 1519 1518 1515 1514 1513 1513 1513 1515 1510 1509 1515 1511 1511 1510 1514 1510 1509 1510 1508 1509 1512 1514 1516 1517 1518 1518
1521 1523 1525 1526 1528 1529 1529 1529 1529 1528 1528 1526 1524 1522 1520 1519 1518 1516 1515 1513 1511 1510 1508 1510 1510 1510 1509 1507 1506 1505 1503 1507 1506 1502 1502 1503 1502 1505 1507 1508 1510 1512 1512
1513 1515 1517 1518 1521 1522 1523 1523 1523 1523 1523 1522 1521 1519 1517 1516 1514 1513 1511 1510 1507 1505 1504 1503 1502 1502 1500 1497 1499 1494 1498 1499 1501 1497 1494 1494 1496 1500 1500 1501 1504 1505 1505
1503 1505 1507 1510 1513 1513 1515 1516 1517 1517 1518 1518 1517 1515 1514 1512 1510 1509 1507 1506 1503 1502 1501 1499 1499 1499 1497 1494 1491 1491 1495 1494 1492 1491 1491 1488 1487 1491 1494 1497 1498 1498 1498
1492 1494 1498 1501 1502 1505 1507 1509 1510 1511 1512 1512 1511 1510 1510 1508 1506 1505 1503 1501 1499 1497 1495 1493 1492 1492 1491 1491 1491 1489 1491 1487 1482 1483 1487 1484 1483 1486 1484 1488 1490 1490 1490
1481 1484 1488 1490 1493 1496 1499 1501 1503 1504 1505 1506 1506 1505 1504 1503 1502 1500 1498 1496 1493 1492 1491 1488 1485 1484 1484 1481 1481 1481 1480 1479 1480 1478 1479 1478 1477 1481 1481 1481 1481 1481 1484
1470 1473 1478 1481 1484 1488 1490 1493 1495 1497 1498 1498 1499 1499 1498 1497 1496 1495 1493 1490 1489 1486 1485 1484 1481 1478 1478 1478 1476 1473 1470 1470 1473 1471 1471 1470 1469 1474 1474 1474 1475 1473 1472
1459 1463 1467 1471 1475 1478 1482 1485 1488 1489 1490 1491 1491 1493 1491 1491 1489 1489 1487 1485 1482 1480 1479 1478 1476 1473 1471 1471 1470 1469 1465 1465 1467 1465 1462 1462 1459 1464 1466 1469 1464 1465 1463
1452 1454 1458 1462 1466 1470 1473 1476 1478 1481 1482 1484 1484 1485 1484 1483 1483 1482 1481 1478 1476 1475 1472 1470 1469 1468 1466 1466 1464 1461 1457 1456 1456 1453 1449 1452 1450 1451 1458 1459 1458 1455 1458
1447 1449 1452 1455 1458 1462 1465 1467 1472 1472 1472 1475 1476 1477 1477 1476 1474 1474 1474 1472 1471 1468 1464 1462 1461 1460 1459 1458 1460 1457 1453 1451 1448 1445 1441 1442 1439 1442 1445 1447 1448 1449 1450
1438 1442 1443 1446 1450 1453 1457 1460 1463 1466 1465 1465 1466 1467 1468 1468 1467 1465 1466 1466 1464 1462 1458 1455 1453 1453 1452 1450 1450 1449 1448 1445 1440 1437 1434 1433 1430 1433 1433 1436 1438 1440 1443
1431 1435 1438 1442 1446 1449 1450 1452 1454 1457 1459 1458 1458 1457 1458 1459 1459 1460 1458 1457 1456 1454 1450 1448 1449 1447 1444 1441 1439 1440 1439 1436 1433 1430 1427 1425 1425 1425 1423 1424 1427 1433 1434
1427 1432 1435 1438 1443 1446 1446 1447 1446 1449 1451 1450 1450 1449 1449 1450 1450 1451 1450 1447 1447 1446 1443 1440 1438 1439 1438 1433 1430 1430 1429 1427 1426 1422 1419 1418 1418 1416 1415 1416 1417 1422 1424
1423 1427 1430 1434 1437 1441 1442 1442 1442 1443 1443 1442 1442 1441 1441 1440 1442 1442 1442 1440 1440 1439 1439 1434 1431 1428 1424 1422 1421 1420 1420 1417 1415 1414 1412 1410 1408 1408 1407 1407 1408 1412 1412
1422 1423 1426 1429 1431 1432 1435 1435 1435 1435 1435 1433 1434 1436 1433 1432 1433 1435 1436 1436 1435 1434 1429 1424 1420 1418 1416 1414 1413 1410 1410 1408 1406 1405 1403 1402 1400 1399 1398 1397 1398 1399 1400
1419 1422 1423 1424 1425 1426 1426 1426 1424 1427 1425 1424 1426 1425 1425 1425 1425 1426 1426 1425 1423 1424 1417 1413 1410 1409 1407 1404 1404 1402 1400 1398 1396 1395 1394 1393 1391 1390 1390 1388 1387 1390 1392
1417 1418 1417 1418 1418 1419 1418 1417 1417 1415 1413 1413 1417 1415 1413 1413 1414 1414 1415 1414 1409 1408 1405 1401 1399 1399 1397 1395 1394 1392 1390 1388 1385 1385 1383 1384 1383 1381 1378 1378 1379 1383 1385
1411 1412 1412 1414 1413 1412 1410 1409 1408 1407 1404 1403 1402 1403 1404 1403 1402 1402 1403 1401 1397 1395 1393 1390 1389 1388 1386 1384 1383 1382 1380 1378 1376 1375 1373 1373 1372 1372 1371 1371 1370 1373 1374
1405 1405 1406 1407 1406 1404 1403 1401 1400 1398 1396 1395 1393 1391 1392 1392 1389 1387 1387 1386 1385 1382 1381 1378 1377 1376 1374 1374 1373 1371 1368 1367 1366 1365 1363 1362 1362 1362 1363 1362 1363 1364 1364
1401 1401 1402 1401 1399 1398 1396 1395 1393 1391 1389 1386 1384 1383 1384 1382 1377 1376 1375 1374 1373 1371 1368 1366 1364 1362 1361 1360 1359 1358 1357 1355 1355 1354 1353 1352 1353 1352 1354 1355 1354 1352 1359
1397 1397 1396 1395 1393 1391 1389 1387 1385 1383 1380 1377 1374 1373 1374 1372 1368 1365 1363 1361 1359 1356 1354 1352 1349 1347 1347 1346 1346 1345 1344 1342 1342 1343 1342 1342 1342 1341 1342 1341 1340 1344 1350
1391 1390 1389 1387 1385 1383 1381 1379 1376 1374 1371 1368 1365 1362 1359 1356 1352 1349 1346 1343 1341 1338 1337 1336 1334 1332 1332 1332 1331 1330 1329 1329 1331 1332 1331 1332 1331 1330 1331 1332 1333 1335 1337
1385 1383 1381 1380 1378 1375 1371 1368 1365 1362 1360 1356 1352 1348 1344 1340 1336 1333 1330 1327 1324 1321 1320 1318 1317 1316 1316 1316 1315 1316 1316 1317 1319 1320 1321 1320 1319 1321 1321 1322 1320 1323 1325
1379 1377 1374 1372 1368 1365 1362 1359 1355 1350 1345 1340 1335 1331 1326 1322 1319 1315 1312 1309 1307 1304 1302 1302 1300 1300 1300 1300 1300 1301 1303 1305 1306 1308 1308 1308 1307 1308 1308 1309 1313 1316 1316
1371 1369 1366 1362 1358 1355 1350 1345 1339 1334 1328 1324 1319 1314 1309 1305 1301 1297 1293 1290 1287 1285 1284 1283 1283 1283 1283 1284 1285 1286 1288 1290 1292 1294 1298 1298 1297 1296 1297 1300 1302 1305 1307